EWG5MU EDDH-EGLL

Flight info

Callsign EWG5MU
Flight time 1h 16m
Altitude 38000
Route WSN5G WSN N125 ITMIZ DCT ABNED L980 LOGAN
Aircraft A320/M-SDE3FGHIRWY/LB1

Departure

Time 2026-04-25 14:32
Airport Hamburg Helmut Schmidt Airport (EDDH)

Arrival

Time 2026-04-25 15:49
Airport London Heathrow Airport (EGLL)
Time Latitude Longitude Altitude Speed Heading
2026-04-25 13:54 53.62991 10.00362 49 ft 0 kts 110°
2026-04-25 14:25 53.62996 10.00340 48 ft 4 kts 110°
2026-04-25 14:25 53.63006 10.00298 45 ft 4 kts 110°
2026-04-25 14:25 53.63009 10.00283 46 ft 4 kts 110°
2026-04-25 14:26 53.63026 10.00230 42 ft 4 kts 176°
2026-04-25 14:26 53.63049 10.00242 45 ft 4 kts 212°
2026-04-25 14:26 53.63069 10.00264 43 ft 1 kts 213°
2026-04-25 14:29 53.63055 10.00249 47 ft 7 kts 212°
2026-04-25 14:29 53.63005 10.00197 47 ft 8 kts 212°
2026-04-25 14:29 53.62962 10.00152 46 ft 6 kts 213°
2026-04-25 14:30 53.62909 10.00089 46 ft 13 kts 214°
2026-04-25 14:30 53.62808 9.99828 42 ft 12 kts 248°
2026-04-25 14:30 53.62843 9.99767 45 ft 0 kts 332°
2026-04-25 14:31 53.62844 9.99767 45 ft 0 kts 332°
2026-04-25 14:31 53.62845 9.99766 45 ft 1 kts 332°
2026-04-25 14:31 53.62917 9.99700 45 ft 40 kts 332°
2026-04-25 14:32 53.63369 9.99311 46 ft 103 kts 334°
2026-04-25 14:32 53.64165 9.98627 57 ft 150 kts 331°
2026-04-25 14:32 53.65090 9.97823 734 ft 145 kts 328°
2026-04-25 14:32 53.65987 9.97110 1585 ft 140 kts 329°
2026-04-25 14:33 53.66894 9.96430 2183 ft 148 kts 328°
2026-04-25 14:33 53.67862 9.95648 2653 ft 163 kts 328°
2026-04-25 14:33 53.68937 9.94784 3199 ft 178 kts 329°
2026-04-25 14:33 53.70094 9.93885 3841 ft 188 kts 329°
2026-04-25 14:34 53.71191 9.92700 4551 ft 188 kts 308°
2026-04-25 14:34 53.71664 9.90695 5429 ft 188 kts 275°
2026-04-25 14:34 53.71341 9.88450 6073 ft 212 kts 253°
2026-04-25 14:34 53.70692 9.86099 6584 ft 230 kts 253°
2026-04-25 14:35 53.70042 9.83543 7147 ft 242 kts 257°
2026-04-25 14:35 53.69516 9.80828 7947 ft 244 kts 261°
2026-04-25 14:35 53.69039 9.78070 8819 ft 246 kts 261°
2026-04-25 14:35 53.68556 9.75281 9712 ft 249 kts 261°
2026-04-25 14:36 53.68054 9.72470 10460 ft 256 kts 261°
2026-04-25 14:36 53.67509 9.69476 10729 ft 279 kts 260°
2026-04-25 14:36 53.66908 9.66248 11124 ft 295 kts 259°
2026-04-25 14:36 53.66264 9.62918 11799 ft 301 kts 258°
2026-04-25 14:37 53.65589 9.59549 12533 ft 307 kts 256°
2026-04-25 14:37 53.64578 9.56298 13231 ft 322 kts 243°
2026-04-25 14:37 53.63252 9.53186 13837 ft 330 kts 242°
2026-04-25 14:37 53.61896 9.50034 14441 ft 334 kts 242°
2026-04-25 14:38 53.60522 9.46848 15023 ft 338 kts 242°
2026-04-25 14:38 53.59603 9.44716 15435 ft 341 kts 242°
2026-04-25 14:38 53.58204 9.41472 16043 ft 344 kts 242°
2026-04-25 14:38 53.56790 9.38193 16650 ft 348 kts 242°
2026-04-25 14:39 53.54872 9.33747 17420 ft 354 kts 241°
2026-04-25 14:39 53.53436 9.30418 17963 ft 359 kts 241°
2026-04-25 14:39 53.52442 9.28118 18343 ft 362 kts 241°
2026-04-25 14:39 53.50952 9.24682 18851 ft 365 kts 241°
2026-04-25 14:40 53.49957 9.22392 19192 ft 367 kts 241°
2026-04-25 14:40 53.47933 9.17730 19879 ft 371 kts 241°
2026-04-25 14:40 53.46408 9.14216 20379 ft 374 kts 241°
2026-04-25 14:40 53.44874 9.10677 20897 ft 376 kts 241°
2026-04-25 14:41 53.43324 9.07113 21399 ft 379 kts 240°
2026-04-25 14:41 53.41782 9.03579 21888 ft 382 kts 240°
2026-04-25 14:41 53.40209 8.99986 22355 ft 385 kts 240°
2026-04-25 14:41 53.38615 8.96358 22792 ft 388 kts 240°
2026-04-25 14:42 53.37009 8.92701 23246 ft 391 kts 240°
2026-04-25 14:42 53.35919 8.90213 23543 ft 393 kts 241°
2026-04-25 14:42 53.34166 8.84984 24046 ft 387 kts 253°
2026-04-25 14:42 53.33227 8.80764 24426 ft 388 kts 256°
2026-04-25 14:43 53.32298 8.76513 24790 ft 390 kts 256°
2026-04-25 14:43 53.31359 8.72244 25117 ft 393 kts 255°
2026-04-25 14:43 53.30407 8.67936 25450 ft 397 kts 255°
2026-04-25 14:43 53.29448 8.63599 25802 ft 399 kts 255°
2026-04-25 14:44 53.28485 8.59230 26147 ft 402 kts 255°
2026-04-25 14:44 53.27519 8.54839 26500 ft 404 kts 256°
2026-04-25 14:44 53.26551 8.50422 26841 ft 406 kts 256°
2026-04-25 14:44 53.25620 8.45963 27184 ft 408 kts 257°
2026-04-25 14:45 53.24750 8.41449 27534 ft 409 kts 258°
2026-04-25 14:45 53.23914 8.36891 27863 ft 411 kts 259°
2026-04-25 14:45 53.23086 8.32310 28195 ft 414 kts 259°
2026-04-25 14:45 53.22246 8.27704 28513 ft 416 kts 258°
2026-04-25 14:46 53.21386 8.23080 28844 ft 419 kts 258°
2026-04-25 14:46 53.20506 8.18435 29122 ft 421 kts 258°
2026-04-25 14:46 53.19615 8.13770 29404 ft 424 kts 258°
2026-04-25 14:46 53.18715 8.09076 29673 ft 426 kts 258°
2026-04-25 14:47 53.17815 8.04345 29949 ft 428 kts 258°
2026-04-25 14:47 53.17223 8.01209 30147 ft 430 kts 258°
2026-04-25 14:47 53.16025 7.94837 30479 ft 432 kts 258°
2026-04-25 14:47 53.15122 7.90046 30720 ft 434 kts 258°
2026-04-25 14:48 53.14212 7.85247 31021 ft 434 kts 258°
2026-04-25 14:48 53.13299 7.80468 31367 ft 433 kts 258°
2026-04-25 14:48 53.12382 7.75691 31711 ft 433 kts 257°
2026-04-25 14:48 53.11464 7.70933 32045 ft 432 kts 257°
2026-04-25 14:49 53.10534 7.66181 32371 ft 433 kts 255°
2026-04-25 14:49 53.09386 7.61536 32656 ft 435 kts 252°
2026-04-25 14:49 53.08206 7.56893 32949 ft 435 kts 252°
2026-04-25 14:49 53.07024 7.52262 33271 ft 435 kts 252°
2026-04-25 14:50 53.05845 7.47645 33611 ft 434 kts 252°
2026-04-25 14:50 53.04666 7.43029 33940 ft 434 kts 252°
2026-04-25 14:50 53.03487 7.38419 34254 ft 433 kts 252°
2026-04-25 14:50 53.02309 7.33821 34510 ft 432 kts 252°
2026-04-25 14:51 53.01129 7.29245 34894 ft 429 kts 252°
2026-04-25 14:51 52.99956 7.24714 35253 ft 426 kts 252°
2026-04-25 14:51 52.98790 7.20207 35554 ft 425 kts 252°
2026-04-25 14:51 52.97623 7.15706 35829 ft 424 kts 252°
2026-04-25 14:52 52.96462 7.11230 36082 ft 423 kts 252°
2026-04-25 14:52 52.95300 7.06755 36316 ft 422 kts 252°
2026-04-25 14:52 52.94135 7.02284 36540 ft 422 kts 252°
2026-04-25 14:52 52.93364 6.99330 36696 ft 422 kts 252°
2026-04-25 14:53 52.91807 6.93374 37003 ft 421 kts 252°
2026-04-25 14:53 52.90644 6.88926 37230 ft 420 kts 252°
2026-04-25 14:53 52.89480 6.84488 37460 ft 420 kts 251°
2026-04-25 14:53 52.88318 6.80063 37684 ft 419 kts 251°
2026-04-25 14:54 52.87155 6.75645 37906 ft 418 kts 251°
2026-04-25 14:54 52.85993 6.71240 38119 ft 418 kts 251°
2026-04-25 14:54 52.83677 6.62498 38162 ft 417 kts 251°
2026-04-25 14:55 52.81344 6.53725 38160 ft 417 kts 250°
2026-04-25 14:55 52.78999 6.44940 38172 ft 418 kts 250°
2026-04-25 14:56 52.76650 6.36165 38169 ft 418 kts 250°
2026-04-25 14:56 52.74291 6.27394 38175 ft 418 kts 250°
2026-04-25 14:57 52.71921 6.18637 38180 ft 418 kts 250°
2026-04-25 14:57 52.69544 6.09882 38178 ft 418 kts 250°
2026-04-25 14:58 52.67168 6.01138 38166 ft 418 kts 250°
2026-04-25 14:58 52.64782 5.92391 38169 ft 419 kts 250°
2026-04-25 14:59 52.62387 5.83634 38168 ft 420 kts 250°
2026-04-25 14:59 52.59980 5.74891 38148 ft 420 kts 249°
2026-04-25 15:00 52.57558 5.66131 38160 ft 421 kts 249°
2026-04-25 15:00 52.55131 5.57367 38176 ft 421 kts 249°
2026-04-25 15:01 52.52697 5.48612 38170 ft 422 kts 249°
2026-04-25 15:01 52.50248 5.39863 38176 ft 422 kts 249°
2026-04-25 15:02 52.47794 5.31109 38183 ft 422 kts 249°
2026-04-25 15:02 52.45352 5.22413 38188 ft 423 kts 248°
2026-04-25 15:03 52.42866 5.13608 38199 ft 423 kts 248°
2026-04-25 15:03 52.40404 5.04931 38184 ft 423 kts 248°
2026-04-25 15:04 52.37919 4.96198 38194 ft 423 kts 248°
2026-04-25 15:04 52.35428 4.87462 38180 ft 424 kts 248°
2026-04-25 15:05 52.32929 4.78733 38185 ft 424 kts 248°
2026-04-25 15:06 52.29154 4.65645 38215 ft 424 kts 247°
2026-04-25 15:06 52.26630 4.56930 38216 ft 425 kts 247°
2026-04-25 15:07 52.24097 4.48219 38219 ft 425 kts 247°
2026-04-25 15:07 52.21560 4.39520 38221 ft 425 kts 247°
2026-04-25 15:08 52.19023 4.30828 38217 ft 425 kts 247°
2026-04-25 15:08 52.16478 4.22146 38227 ft 425 kts 247°
2026-04-25 15:09 52.13923 4.13477 38227 ft 424 kts 247°
2026-04-25 15:09 52.10086 4.00510 38232 ft 424 kts 247°
2026-04-25 15:10 52.07515 3.91890 38236 ft 424 kts 246°
2026-04-25 15:11 52.03655 3.78970 38238 ft 424 kts 246°
2026-04-25 15:11 52.01080 3.70369 38243 ft 424 kts 246°
2026-04-25 15:12 51.97200 3.57486 38238 ft 423 kts 246°
2026-04-25 15:12 51.95482 3.51809 38243 ft 423 kts 246°
2026-04-25 15:13 51.90728 3.36180 38248 ft 422 kts 245°
2026-04-25 15:14 51.88130 3.27672 38258 ft 421 kts 245°
2026-04-25 15:14 51.85616 3.19117 38252 ft 420 kts 251°
2026-04-25 15:15 51.84453 3.09939 38234 ft 417 kts 265°
2026-04-25 15:15 51.83861 3.00604 38234 ft 418 kts 264°
2026-04-25 15:16 51.83250 2.91264 38246 ft 418 kts 264°
2026-04-25 15:16 51.82295 2.77246 38238 ft 418 kts 264°
2026-04-25 15:17 51.81340 2.63223 38228 ft 419 kts 264°
2026-04-25 15:18 51.80697 2.53859 38240 ft 419 kts 264°
2026-04-25 15:18 51.79710 2.39815 38241 ft 419 kts 263°
2026-04-25 15:19 51.79265 2.33617 38238 ft 420 kts 263°
2026-04-25 15:19 51.78361 2.21089 38223 ft 420 kts 263°
2026-04-25 15:20 51.77784 2.11704 38234 ft 420 kts 265°
2026-04-25 15:20 51.77524 2.06972 37583 ft 425 kts 265°
2026-04-25 15:20 51.77268 2.02278 36893 ft 425 kts 265°
2026-04-25 15:21 51.77000 1.97528 36221 ft 425 kts 264°
2026-04-25 15:21 51.76722 1.92786 35556 ft 424 kts 264°
2026-04-25 15:21 51.76434 1.88038 34916 ft 424 kts 264°
2026-04-25 15:21 51.76140 1.83299 34294 ft 425 kts 264°
2026-04-25 15:22 51.75842 1.78542 33588 ft 426 kts 264°
2026-04-25 15:22 51.75542 1.73784 32886 ft 426 kts 264°
2026-04-25 15:22 51.75269 1.69036 32207 ft 424 kts 264°
2026-04-25 15:22 51.74981 1.64326 31644 ft 419 kts 263°
2026-04-25 15:23 51.74681 1.59675 31142 ft 414 kts 263°
2026-04-25 15:23 51.74377 1.55073 30648 ft 410 kts 263°
2026-04-25 15:23 51.74078 1.50527 30142 ft 406 kts 263°
2026-04-25 15:23 51.73786 1.46026 29575 ft 402 kts 263°
2026-04-25 15:24 51.73497 1.41561 29016 ft 400 kts 263°
2026-04-25 15:24 51.73208 1.37109 28477 ft 398 kts 263°
2026-04-25 15:24 51.72920 1.32695 27941 ft 395 kts 263°
2026-04-25 15:24 51.72823 1.31209 27772 ft 394 kts 263°
2026-04-25 15:25 51.72348 1.23942 27026 ft 390 kts 263°
2026-04-25 15:25 51.72064 1.19611 26638 ft 388 kts 263°
2026-04-25 15:25 51.71777 1.15295 26262 ft 386 kts 263°
2026-04-25 15:25 51.71488 1.11010 25891 ft 384 kts 263°
2026-04-25 15:26 51.71197 1.06742 25525 ft 382 kts 263°
2026-04-25 15:26 51.70902 1.02493 25155 ft 380 kts 263°
2026-04-25 15:26 51.70608 0.98271 24804 ft 378 kts 263°
2026-04-25 15:26 51.70315 0.94063 24450 ft 377 kts 263°
2026-04-25 15:27 51.70025 0.89869 24102 ft 376 kts 263°
2026-04-25 15:27 51.69737 0.85692 23729 ft 374 kts 263°
2026-04-25 15:27 51.69160 0.77395 22906 ft 370 kts 263°
2026-04-25 15:28 51.68968 0.74676 22639 ft 369 kts 263°
2026-04-25 15:28 51.68674 0.70575 22133 ft 367 kts 263°
2026-04-25 15:28 51.68380 0.66500 21617 ft 365 kts 263°
2026-04-25 15:28 51.68089 0.62446 21109 ft 363 kts 263°
2026-04-25 15:29 51.67800 0.58415 20606 ft 361 kts 263°
2026-04-25 15:29 51.67511 0.54409 20113 ft 359 kts 263°
2026-04-25 15:29 51.67220 0.50422 19643 ft 358 kts 263°
2026-04-25 15:29 51.66927 0.46452 19152 ft 356 kts 264°
2026-04-25 15:30 51.66635 0.42495 18680 ft 355 kts 264°
2026-04-25 15:30 51.66347 0.38558 18164 ft 354 kts 264°
2026-04-25 15:30 51.66060 0.34630 17648 ft 353 kts 264°
2026-04-25 15:30 51.65773 0.30715 17110 ft 352 kts 264°
2026-04-25 15:31 51.65483 0.26808 16594 ft 351 kts 264°
2026-04-25 15:31 51.65191 0.22909 16086 ft 350 kts 264°
2026-04-25 15:31 51.64898 0.19026 15587 ft 350 kts 264°
2026-04-25 15:31 51.64565 0.15154 15094 ft 349 kts 262°
2026-04-25 15:32 51.64165 0.11321 14689 ft 345 kts 261°
2026-04-25 15:32 51.63763 0.07536 14306 ft 341 kts 261°
2026-04-25 15:32 51.63364 0.03787 13918 ft 338 kts 261°
2026-04-25 15:33 51.62582 -0.03581 13108 ft 331 kts 261°
2026-04-25 15:33 51.62197 -0.07214 12696 ft 328 kts 261°
2026-04-25 15:33 51.61817 -0.10816 12293 ft 325 kts 261°
2026-04-25 15:33 51.61441 -0.14392 11893 ft 323 kts 261°
2026-04-25 15:34 51.61069 -0.17952 11492 ft 322 kts 261°
2026-04-25 15:34 51.60700 -0.21498 11098 ft 320 kts 261°
2026-04-25 15:34 51.60335 -0.25022 10712 ft 319 kts 261°
2026-04-25 15:34 51.60095 -0.27350 10393 ft 317 kts 261°
2026-04-25 15:35 51.59268 -0.35406 9454 ft 309 kts 261°
2026-04-25 15:35 51.58922 -0.38756 9071 ft 298 kts 261°
2026-04-25 15:35 51.58587 -0.41991 8707 ft 289 kts 261°
2026-04-25 15:36 51.57930 -0.48279 8021 ft 283 kts 261°
2026-04-25 15:36 51.57603 -0.51397 7690 ft 279 kts 261°
2026-04-25 15:36 51.57280 -0.54464 7370 ft 277 kts 261°
2026-04-25 15:37 51.56961 -0.57468 7191 ft 267 kts 261°
2026-04-25 15:37 51.56649 -0.60379 7188 ft 263 kts 261°
2026-04-25 15:37 51.56344 -0.63206 7191 ft 249 kts 261°
2026-04-25 15:37 51.56050 -0.65914 7191 ft 245 kts 261°
2026-04-25 15:38 51.55758 -0.68605 7177 ft 245 kts 261°
2026-04-25 15:38 51.55462 -0.71315 6883 ft 246 kts 261°
2026-04-25 15:38 51.55168 -0.74011 6564 ft 244 kts 261°
2026-04-25 15:38 51.54876 -0.76687 6232 ft 242 kts 261°
2026-04-25 15:39 51.54585 -0.79348 5898 ft 241 kts 261°
2026-04-25 15:39 51.54296 -0.81998 5569 ft 240 kts 261°
2026-04-25 15:39 51.54007 -0.84640 5241 ft 240 kts 261°
2026-04-25 15:39 51.53721 -0.87262 5028 ft 236 kts 261°
2026-04-25 15:40 51.53437 -0.89854 5008 ft 236 kts 261°
2026-04-25 15:40 51.53249 -0.91572 5009 ft 236 kts 261°
2026-04-25 15:40 51.52868 -0.95051 5010 ft 237 kts 261°
2026-04-25 15:40 51.52583 -0.97653 5012 ft 236 kts 261°
2026-04-25 15:41 51.52294 -1.00251 5007 ft 236 kts 257°
2026-04-25 15:41 51.51559 -1.02580 5010 ft 237 kts 226°
2026-04-25 15:41 51.50166 -1.03955 4940 ft 239 kts 194°
2026-04-25 15:41 51.48530 -1.03941 4868 ft 238 kts 162°
2026-04-25 15:42 51.47165 -1.02522 4778 ft 237 kts 126°
2026-04-25 15:42 51.46656 -1.00081 4702 ft 234 kts 85°
2026-04-25 15:42 51.47167 -0.97640 4625 ft 234 kts 61°
2026-04-25 15:42 51.47679 -0.95182 4540 ft 233 kts 89°
2026-04-25 15:43 51.47539 -0.92695 4443 ft 222 kts 93°
2026-04-25 15:43 51.47501 -0.90257 4265 ft 214 kts 89°
2026-04-25 15:43 51.47518 -0.87880 4053 ft 206 kts 88°
2026-04-25 15:43 51.47537 -0.85625 3847 ft 199 kts 88°
2026-04-25 15:44 51.47553 -0.83456 3637 ft 195 kts 89°
2026-04-25 15:44 51.47568 -0.81296 3412 ft 192 kts 89°
2026-04-25 15:44 51.47583 -0.79168 3182 ft 190 kts 89°
2026-04-25 15:44 51.47597 -0.77054 2954 ft 189 kts 89°
2026-04-25 15:45 51.47610 -0.74952 2744 ft 188 kts 89°
2026-04-25 15:45 51.47623 -0.72861 2578 ft 187 kts 89°
2026-04-25 15:45 51.47636 -0.70772 2504 ft 187 kts 89°
2026-04-25 15:45 51.47644 -0.69392 2499 ft 185 kts 89°
2026-04-25 15:46 51.47660 -0.66715 2295 ft 175 kts 89°
2026-04-25 15:46 51.47670 -0.64774 2083 ft 173 kts 89°
2026-04-25 15:46 51.47681 -0.62855 1858 ft 171 kts 89°
2026-04-25 15:46 51.47691 -0.60959 1631 ft 169 kts 89°
2026-04-25 15:47 51.47700 -0.59088 1422 ft 166 kts 89°
2026-04-25 15:47 51.47709 -0.57263 1186 ft 161 kts 89°
2026-04-25 15:47 51.47717 -0.55515 969 ft 153 kts 89°
2026-04-25 15:47 51.47724 -0.53827 760 ft 150 kts 89°
2026-04-25 15:48 51.47737 -0.52164 574 ft 149 kts 90°
2026-04-25 15:48 51.47746 -0.50512 377 ft 148 kts 89°
2026-04-25 15:48 51.47750 -0.48869 187 ft 147 kts 90°
2026-04-25 15:48 51.47757 -0.47267 85 ft 130 kts 89°
2026-04-25 15:49 51.47759 -0.46208 90 ft 78 kts 89°
2026-04-25 15:49 51.47761 -0.45599 85 ft 36 kts 89°
2026-04-25 15:49 51.47762 -0.45201 88 ft 34 kts 90°
2026-04-25 15:49 51.47750 -0.44898 92 ft 18 kts 125°
2026-04-25 15:50 51.47679 -0.44821 90 ft 10 kts 147°
2026-04-25 15:50 51.47627 -0.44780 90 ft 7 kts 160°
2026-04-25 15:50 51.47601 -0.44728 86 ft 6 kts 96°
2026-04-25 15:50 51.47589 -0.44676 89 ft 4 kts 128°
2026-04-25 15:51 51.47565 -0.44662 89 ft 3 kts 172°
2026-04-25 15:51 51.47551 -0.44659 88 ft 3 kts 172°
2026-04-25 15:51 51.47516 -0.44639 91 ft 12 kts 139°
2026-04-25 15:51 51.47422 -0.44559 86 ft 18 kts 176°
2026-04-25 15:52 51.47294 -0.44558 88 ft 19 kts 179°
2026-04-25 15:52 51.47160 -0.44556 86 ft 19 kts 179°
2026-04-25 15:52 51.47021 -0.44555 86 ft 20 kts 179°
2026-04-25 15:52 51.46879 -0.44554 86 ft 21 kts 179°
2026-04-25 15:53 51.46756 -0.44584 89 ft 17 kts 234°
2026-04-25 15:53 51.46752 -0.44774 86 ft 18 kts 271°
2026-04-25 15:53 51.46751 -0.44939 86 ft 12 kts 270°
2026-04-25 15:53 51.46803 -0.44979 86 ft 9 kts
2026-04-25 15:54 51.46829 -0.44979 86 ft 0 kts 359°
2026-04-25 15:54 51.46830 -0.44979 86 ft 0 kts 359°